Year,Month,Day,Hour,Minute,Value (Times are PST for temperature in C)
2008,10,11,00,00,6.70
2008,10,11,00,01,6.70
2008,10,11,00,02,6.60
2008,10,11,00,03,6.60
2008,10,11,00,04,6.60
2008,10,11,00,05,6.60
2008,10,11,00,06,6.50
2008,10,11,00,07,6.40
2008,10,11,00,08,6.40
2008,10,11,00,09,6.40
2008,10,11,00,10,6.40
2008,10,11,00,11,6.40
2008,10,11,00,12,6.40
2008,10,11,00,13,6.40
2008,10,11,00,14,6.30
2008,10,11,00,15,6.30
2008,10,11,00,16,6.30
2008,10,11,00,17,6.30
2008,10,11,00,18,6.30
2008,10,11,00,19,6.40
2008,10,11,00,20,6.40
2008,10,11,00,21,6.40
2008,10,11,00,22,6.40
2008,10,11,00,23,6.40
2008,10,11,00,24,6.40
2008,10,11,00,25,6.50
2008,10,11,00,26,6.60
2008,10,11,00,27,6.50
2008,10,11,00,28,6.40
2008,10,11,00,29,6.40
2008,10,11,00,30,6.40
2008,10,11,00,31,6.40
2008,10,11,00,32,6.30
2008,10,11,00,33,6.20
2008,10,11,00,34,6.20
2008,10,11,00,35,6.10
2008,10,11,00,36,6.00
2008,10,11,00,37,5.90
2008,10,11,00,38,5.90
2008,10,11,00,39,5.80
2008,10,11,00,40,5.80
2008,10,11,00,41,5.70
2008,10,11,00,42,5.70
2008,10,11,00,43,5.70
2008,10,11,00,44,5.70
2008,10,11,00,45,5.80
2008,10,11,00,46,5.80
2008,10,11,00,47,5.80
2008,10,11,00,48,5.90
2008,10,11,00,49,5.90
2008,10,11,00,50,6.00
2008,10,11,00,51,6.00
2008,10,11,00,52,6.00
2008,10,11,00,53,6.10
2008,10,11,00,54,6.00
2008,10,11,00,55,6.00
2008,10,11,00,56,6.00
2008,10,11,00,57,6.00
2008,10,11,00,58,6.00
2008,10,11,00,59,6.00
2008,10,11,01,00,5.90
2008,10,11,01,01,5.90
2008,10,11,01,02,5.90
2008,10,11,01,03,5.90
2008,10,11,01,04,5.90
2008,10,11,01,05,5.90
2008,10,11,01,06,5.90
2008,10,11,01,07,5.90
2008,10,11,01,08,5.90
2008,10,11,01,09,5.90
2008,10,11,01,10,5.90
2008,10,11,01,11,5.90
2008,10,11,01,12,5.90
2008,10,11,01,13,5.90
2008,10,11,01,14,5.90
2008,10,11,01,15,5.90
2008,10,11,01,16,6.00
2008,10,11,01,17,6.10
2008,10,11,01,18,6.20
2008,10,11,01,19,6.20
2008,10,11,01,20,6.30
2008,10,11,01,21,6.30
2008,10,11,01,22,6.40
2008,10,11,01,23,6.40
2008,10,11,01,24,6.60
2008,10,11,01,25,6.60
2008,10,11,01,26,6.60
2008,10,11,01,27,6.60
2008,10,11,01,28,6.60
2008,10,11,01,29,6.60
2008,10,11,01,30,6.60
2008,10,11,01,31,6.60
2008,10,11,01,32,6.60
2008,10,11,01,33,6.70
2008,10,11,01,34,6.70
2008,10,11,01,35,6.70
2008,10,11,01,36,6.60
2008,10,11,01,37,6.60
2008,10,11,01,38,6.50
2008,10,11,01,39,6.40
2008,10,11,01,40,6.30
2008,10,11,01,41,6.20
2008,10,11,01,42,6.10
2008,10,11,01,43,6.00
2008,10,11,01,44,6.00
2008,10,11,01,45,5.90
2008,10,11,01,46,5.80
2008,10,11,01,47,5.70
2008,10,11,01,48,5.70
2008,10,11,01,49,5.70
2008,10,11,01,50,5.60
2008,10,11,01,51,5.60
2008,10,11,01,52,5.60
2008,10,11,01,53,5.60
2008,10,11,01,54,5.60
2008,10,11,01,55,5.50
2008,10,11,01,56,5.50
2008,10,11,01,57,5.50
2008,10,11,01,58,5.50
2008,10,11,01,59,5.50
2008,10,11,02,00,5.50
2008,10,11,02,01,5.50
2008,10,11,02,02,5.50
2008,10,11,02,03,5.50
2008,10,11,02,04,5.60
2008,10,11,02,05,5.60
2008,10,11,02,06,5.60
2008,10,11,02,07,5.70
2008,10,11,02,08,5.70
2008,10,11,02,09,5.70
2008,10,11,02,10,5.80
2008,10,11,02,11,5.90
2008,10,11,02,12,6.00
2008,10,11,02,13,6.00
2008,10,11,02,14,6.10
2008,10,11,02,15,6.20
2008,10,11,02,16,6.20
2008,10,11,02,17,6.20
2008,10,11,02,18,6.30
2008,10,11,02,19,6.30
2008,10,11,02,20,6.40
2008,10,11,02,21,6.40
2008,10,11,02,22,6.40
2008,10,11,02,23,6.50
2008,10,11,02,24,6.60
2008,10,11,02,25,6.60
2008,10,11,02,26,6.60
2008,10,11,02,27,6.60
2008,10,11,02,28,6.60
2008,10,11,02,29,6.60
2008,10,11,02,30,6.50
2008,10,11,02,31,6.40
2008,10,11,02,32,6.40
2008,10,11,02,33,6.30
2008,10,11,02,34,6.30
2008,10,11,02,35,6.20
2008,10,11,02,36,6.10
2008,10,11,02,37,6.10
2008,10,11,02,38,6.00
2008,10,11,02,39,6.00
2008,10,11,02,40,5.90
2008,10,11,02,41,5.80
2008,10,11,02,42,5.70
2008,10,11,02,43,5.60
2008,10,11,02,44,5.50
2008,10,11,02,45,5.40
2008,10,11,02,46,5.20
2008,10,11,02,47,5.10
2008,10,11,02,48,5.00
2008,10,11,02,49,4.90
2008,10,11,02,50,4.80
2008,10,11,02,51,4.70
2008,10,11,02,52,4.70
2008,10,11,02,53,4.60
2008,10,11,02,54,4.60
2008,10,11,02,55,4.60
2008,10,11,02,56,4.60
2008,10,11,02,57,4.50
2008,10,11,02,58,4.50
2008,10,11,02,59,4.40
2008,10,11,03,00,4.40
2008,10,11,03,01,4.30
2008,10,11,03,02,4.20
2008,10,11,03,03,4.20
2008,10,11,03,04,4.20
2008,10,11,03,05,4.10
2008,10,11,03,06,4.10
2008,10,11,03,07,4.10
2008,10,11,03,08,4.00
2008,10,11,03,09,4.10
2008,10,11,03,10,4.10
2008,10,11,03,11,4.10
2008,10,11,03,12,4.20
2008,10,11,03,13,4.20
2008,10,11,03,14,4.30
2008,10,11,03,15,4.30
2008,10,11,03,16,4.40
2008,10,11,03,17,4.50
2008,10,11,03,18,4.50
2008,10,11,03,19,4.50
2008,10,11,03,20,4.60
2008,10,11,03,21,4.60
2008,10,11,03,22,4.60
2008,10,11,03,23,4.70
2008,10,11,03,24,4.80
2008,10,11,03,25,4.80
2008,10,11,03,26,4.90
2008,10,11,03,27,4.90
2008,10,11,03,28,4.90
2008,10,11,03,29,5.00
2008,10,11,03,30,5.10
2008,10,11,03,31,5.10
2008,10,11,03,32,5.10
2008,10,11,03,33,5.10
2008,10,11,03,34,5.10
2008,10,11,03,35,5.10
2008,10,11,03,36,5.00
2008,10,11,03,37,4.90
2008,10,11,03,38,4.90
2008,10,11,03,39,4.80
2008,10,11,03,40,4.70
2008,10,11,03,41,4.70
2008,10,11,03,42,4.60
2008,10,11,03,43,4.60
2008,10,11,03,44,4.60
2008,10,11,03,45,4.60
2008,10,11,03,46,4.50
2008,10,11,03,47,4.50
2008,10,11,03,48,4.50
2008,10,11,03,49,4.50
2008,10,11,03,50,4.50
2008,10,11,03,51,4.50
2008,10,11,03,52,4.40
2008,10,11,03,53,4.40
2008,10,11,03,54,4.40
2008,10,11,03,55,4.40
2008,10,11,03,56,4.40
2008,10,11,03,57,4.40
2008,10,11,03,58,4.40
2008,10,11,03,59,4.40
2008,10,11,04,00,4.40
2008,10,11,04,01,4.40
2008,10,11,04,02,4.40
2008,10,11,04,03,4.40
2008,10,11,04,04,4.40
2008,10,11,04,05,4.40
2008,10,11,04,06,4.40
2008,10,11,04,07,4.40
2008,10,11,04,08,4.40
2008,10,11,04,09,4.50
2008,10,11,04,10,4.50
2008,10,11,04,11,4.60
2008,10,11,04,12,4.60
2008,10,11,04,13,4.60
2008,10,11,04,14,4.60
2008,10,11,04,15,4.60
2008,10,11,04,16,4.60
2008,10,11,04,17,4.50
2008,10,11,04,18,4.50
2008,10,11,04,19,4.50
2008,10,11,04,20,4.40
2008,10,11,04,21,4.40
2008,10,11,04,22,4.40
2008,10,11,04,23,4.30
2008,10,11,04,24,4.30
2008,10,11,04,25,4.20
2008,10,11,04,26,4.20
2008,10,11,04,27,4.20
2008,10,11,04,28,4.20
2008,10,11,04,29,4.20
2008,10,11,04,30,4.20
2008,10,11,04,31,4.20
2008,10,11,04,32,4.20
2008,10,11,04,33,4.20
2008,10,11,04,34,4.20
2008,10,11,04,35,4.20
2008,10,11,04,36,4.20
2008,10,11,04,37,4.20
2008,10,11,04,38,4.30
2008,10,11,04,39,4.30
2008,10,11,04,40,4.30
2008,10,11,04,41,4.30
2008,10,11,04,42,4.30
2008,10,11,04,43,4.30
2008,10,11,04,44,4.30
2008,10,11,04,45,4.20
2008,10,11,04,46,4.20
2008,10,11,04,47,4.20
2008,10,11,04,48,4.20
2008,10,11,04,49,4.20
2008,10,11,04,50,4.20
2008,10,11,04,51,4.10
2008,10,11,04,52,4.00
2008,10,11,04,53,4.00
2008,10,11,04,54,4.00
2008,10,11,04,55,3.90
2008,10,11,04,56,3.90
2008,10,11,04,57,3.90
2008,10,11,04,58,3.90
2008,10,11,04,59,3.90
2008,10,11,05,00,3.90
2008,10,11,05,01,4.00
2008,10,11,05,02,4.00
2008,10,11,05,03,4.00
2008,10,11,05,04,4.10
2008,10,11,05,05,4.20
2008,10,11,05,06,4.20
2008,10,11,05,07,4.20
2008,10,11,05,08,4.30
2008,10,11,05,09,4.40
2008,10,11,05,10,4.40
2008,10,11,05,11,4.50
2008,10,11,05,12,4.50
2008,10,11,05,13,4.60
2008,10,11,05,14,4.60
2008,10,11,05,15,4.70
2008,10,11,05,16,4.80
2008,10,11,05,17,4.90
2008,10,11,05,18,5.00
2008,10,11,05,19,5.10
2008,10,11,05,20,5.10
2008,10,11,05,21,5.30
2008,10,11,05,22,5.50
2008,10,11,05,23,5.60
2008,10,11,05,24,5.70
2008,10,11,05,25,5.90
2008,10,11,05,26,6.10
2008,10,11,05,27,6.20
2008,10,11,05,28,6.40
2008,10,11,05,29,6.50
2008,10,11,05,30,6.60
2008,10,11,05,31,6.70
2008,10,11,05,32,6.80
2008,10,11,05,33,6.80
2008,10,11,05,34,6.80
2008,10,11,05,35,6.90
2008,10,11,05,36,6.90
2008,10,11,05,37,6.90
2008,10,11,05,38,6.90
2008,10,11,05,39,6.90
2008,10,11,05,40,6.90
2008,10,11,05,41,6.80
2008,10,11,05,42,6.80
2008,10,11,05,43,6.80
2008,10,11,05,44,6.80
2008,10,11,05,45,6.80
2008,10,11,05,46,6.80
2008,10,11,05,47,6.80
2008,10,11,05,48,6.80
2008,10,11,05,49,6.70
2008,10,11,05,50,6.70
2008,10,11,05,51,6.70
2008,10,11,05,52,6.60
2008,10,11,05,53,6.60
2008,10,11,05,54,6.50
2008,10,11,05,55,6.40
2008,10,11,05,56,6.30
2008,10,11,05,57,6.20
2008,10,11,05,58,6.10
2008,10,11,05,59,5.90
2008,10,11,06,00,5.80
2008,10,11,06,01,5.70
2008,10,11,06,02,5.60
2008,10,11,06,03,5.50
2008,10,11,06,04,5.50
2008,10,11,06,05,5.40
2008,10,11,06,06,5.30
2008,10,11,06,07,5.30
2008,10,11,06,08,5.30
2008,10,11,06,09,5.20
2008,10,11,06,10,5.20
2008,10,11,06,11,5.10
2008,10,11,06,12,5.10
2008,10,11,06,13,5.10
2008,10,11,06,14,5.10
2008,10,11,06,15,5.10
2008,10,11,06,16,5.00
2008,10,11,06,17,4.90
2008,10,11,06,18,4.90
2008,10,11,06,19,4.80
2008,10,11,06,20,4.80
2008,10,11,06,21,4.70
2008,10,11,06,22,4.70
2008,10,11,06,23,4.60
2008,10,11,06,24,4.60
2008,10,11,06,25,4.60
2008,10,11,06,26,4.60
2008,10,11,06,27,4.50
2008,10,11,06,28,4.50
2008,10,11,06,29,4.50
2008,10,11,06,30,4.50
2008,10,11,06,31,4.50
2008,10,11,06,32,4.40
2008,10,11,06,33,4.40
2008,10,11,06,34,4.40
2008,10,11,06,35,4.40
2008,10,11,06,36,4.50
2008,10,11,06,37,4.50
2008,10,11,06,38,4.60
2008,10,11,06,39,4.60
2008,10,11,06,40,4.60
2008,10,11,06,41,4.70
2008,10,11,06,42,4.70
2008,10,11,06,43,4.80
2008,10,11,06,44,4.90
2008,10,11,06,45,4.90
2008,10,11,06,46,5.00
2008,10,11,06,47,5.10
2008,10,11,06,48,5.10
2008,10,11,06,49,5.10
2008,10,11,06,50,5.10
2008,10,11,06,51,5.10
2008,10,11,06,52,5.20
2008,10,11,06,53,5.20
2008,10,11,06,54,5.30
2008,10,11,06,55,5.40
2008,10,11,06,56,5.40
2008,10,11,06,57,5.40
2008,10,11,06,58,5.50
2008,10,11,06,59,5.50
2008,10,11,07,00,5.60
2008,10,11,07,01,5.60
2008,10,11,07,02,5.60
2008,10,11,07,03,5.70
2008,10,11,07,04,5.70
2008,10,11,07,05,5.70
2008,10,11,07,06,5.70
2008,10,11,07,07,5.80
2008,10,11,07,08,5.90
2008,10,11,07,09,5.90
2008,10,11,07,10,5.90
2008,10,11,07,11,5.90
2008,10,11,07,12,5.90
2008,10,11,07,13,5.80
2008,10,11,07,14,5.80
2008,10,11,07,15,5.90
2008,10,11,07,16,5.90
2008,10,11,07,17,6.00
2008,10,11,07,18,6.00
2008,10,11,07,19,6.10
2008,10,11,07,20,6.20
2008,10,11,07,21,6.20
2008,10,11,07,22,6.30
2008,10,11,07,23,6.40
2008,10,11,07,24,6.50
2008,10,11,07,25,6.60
2008,10,11,07,26,6.60
2008,10,11,07,27,6.60
2008,10,11,07,28,6.70
2008,10,11,07,29,6.70
2008,10,11,07,30,6.80
2008,10,11,07,31,6.80
2008,10,11,07,32,6.80
2008,10,11,07,33,6.90
2008,10,11,07,34,6.90
2008,10,11,07,35,6.90
2008,10,11,07,36,7.00
2008,10,11,07,37,7.00
2008,10,11,07,38,7.00
2008,10,11,07,39,7.10
2008,10,11,07,40,7.10
2008,10,11,07,41,7.10
2008,10,11,07,42,7.20
2008,10,11,07,43,7.20
2008,10,11,07,44,7.20
2008,10,11,07,45,7.20
2008,10,11,07,46,7.20
2008,10,11,07,47,7.10
2008,10,11,07,48,7.00
2008,10,11,07,49,7.00
2008,10,11,07,50,6.90
2008,10,11,07,51,6.80
2008,10,11,07,52,6.80
2008,10,11,07,53,6.80
2008,10,11,07,54,6.70
2008,10,11,07,55,6.70
2008,10,11,07,56,6.70
2008,10,11,07,57,6.60
2008,10,11,07,58,6.60
2008,10,11,07,59,6.60
2008,10,11,08,00,6.60
2008,10,11,08,01,6.60
2008,10,11,08,02,6.60
2008,10,11,08,03,6.60
2008,10,11,08,04,6.50
2008,10,11,08,05,6.40
2008,10,11,08,06,6.40
2008,10,11,08,07,6.40
2008,10,11,08,08,6.40
2008,10,11,08,09,6.40
2008,10,11,08,10,6.40
2008,10,11,08,11,6.50
2008,10,11,08,12,6.60
2008,10,11,08,13,6.60
2008,10,11,08,14,6.60
2008,10,11,08,15,6.60
2008,10,11,08,16,6.60
2008,10,11,08,17,6.70
2008,10,11,08,18,6.70
2008,10,11,08,19,6.70
2008,10,11,08,20,6.80
2008,10,11,08,21,6.80
2008,10,11,08,22,6.80
2008,10,11,08,23,6.90
2008,10,11,08,24,7.00
2008,10,11,08,25,7.00
2008,10,11,08,26,7.10
2008,10,11,08,27,7.10
2008,10,11,08,28,7.10
2008,10,11,08,29,7.10
2008,10,11,08,30,7.10
2008,10,11,08,31,7.10
2008,10,11,08,32,7.00
2008,10,11,08,33,6.90
2008,10,11,08,34,6.80
2008,10,11,08,35,6.70
2008,10,11,08,36,6.70
2008,10,11,08,37,6.60
2008,10,11,08,38,6.60
2008,10,11,08,39,6.60
2008,10,11,08,40,6.60
2008,10,11,08,41,6.50
2008,10,11,08,42,6.40
2008,10,11,08,43,6.40
2008,10,11,08,44,6.50
2008,10,11,08,45,6.60
2008,10,11,08,46,6.60
2008,10,11,08,47,6.60
2008,10,11,08,48,6.70
2008,10,11,08,49,6.70
2008,10,11,08,50,6.80
2008,10,11,08,51,6.90
2008,10,11,08,52,7.00
2008,10,11,08,53,7.10
2008,10,11,08,54,7.10
2008,10,11,08,55,7.10
2008,10,11,08,56,7.10
2008,10,11,08,57,7.10
2008,10,11,08,58,7.10
2008,10,11,08,59,7.00
2008,10,11,09,00,7.00
2008,10,11,09,01,7.00
2008,10,11,09,02,6.90
2008,10,11,09,03,6.90
2008,10,11,09,04,6.90
2008,10,11,09,05,6.90
2008,10,11,09,06,6.90
2008,10,11,09,07,6.90
2008,10,11,09,08,6.90
2008,10,11,09,09,7.00
2008,10,11,09,10,7.00
2008,10,11,09,11,7.10
2008,10,11,09,12,7.10
2008,10,11,09,13,7.10
2008,10,11,09,14,7.20
2008,10,11,09,15,7.20
2008,10,11,09,16,7.30
2008,10,11,09,17,7.30
2008,10,11,09,18,7.30
2008,10,11,09,19,7.40
2008,10,11,09,20,7.50
2008,10,11,09,21,7.50
2008,10,11,09,22,7.60
2008,10,11,09,23,7.60
2008,10,11,09,24,7.70
2008,10,11,09,25,7.70
2008,10,11,09,26,7.80
2008,10,11,09,27,7.80
2008,10,11,09,28,7.80
2008,10,11,09,29,7.90
2008,10,11,09,30,7.90
2008,10,11,09,31,8.00
2008,10,11,09,32,8.00
2008,10,11,09,33,8.10
2008,10,11,09,34,8.10
2008,10,11,09,35,8.20
2008,10,11,09,36,8.20
2008,10,11,09,37,8.30
2008,10,11,09,38,8.30
2008,10,11,09,39,8.40
2008,10,11,09,40,8.40
2008,10,11,09,41,8.50
2008,10,11,09,42,8.50
2008,10,11,09,43,8.60
2008,10,11,09,44,8.60
2008,10,11,09,45,8.70
2008,10,11,09,46,8.70
2008,10,11,09,47,8.70
2008,10,11,09,48,8.80
2008,10,11,09,49,8.80
2008,10,11,09,50,8.80
2008,10,11,09,51,8.80
2008,10,11,09,52,8.80
2008,10,11,09,53,8.80
2008,10,11,09,54,8.80
2008,10,11,09,55,8.80
2008,10,11,09,56,8.80
2008,10,11,09,57,8.80
2008,10,11,09,58,8.90
2008,10,11,09,59,8.90
2008,10,11,10,00,8.90
2008,10,11,10,01,9.00
2008,10,11,10,02,9.10
2008,10,11,10,03,9.20
2008,10,11,10,04,9.30
2008,10,11,10,05,9.30
2008,10,11,10,06,9.40
2008,10,11,10,07,9.50
2008,10,11,10,08,9.60
2008,10,11,10,09,9.80
2008,10,11,10,10,10.00
2008,10,11,10,11,10.10
2008,10,11,10,12,10.10
2008,10,11,10,13,10.20
2008,10,11,10,14,10.20
2008,10,11,10,15,10.30
2008,10,11,10,16,10.30
2008,10,11,10,17,10.30
2008,10,11,10,18,10.30
2008,10,11,10,19,10.30
2008,10,11,10,20,10.40
2008,10,11,10,21,10.30
2008,10,11,10,22,10.30
2008,10,11,10,23,10.30
2008,10,11,10,24,10.40
2008,10,11,10,25,10.30
2008,10,11,10,26,10.30
2008,10,11,10,27,10.20
2008,10,11,10,28,10.20
2008,10,11,10,29,10.30
2008,10,11,10,30,10.50
2008,10,11,10,31,10.60
2008,10,11,10,32,10.70
2008,10,11,10,33,10.70
2008,10,11,10,34,10.80
2008,10,11,10,35,10.80
2008,10,11,10,36,10.90
2008,10,11,10,37,11.00
2008,10,11,10,38,11.10
2008,10,11,10,39,11.10
2008,10,11,10,40,11.10
2008,10,11,10,41,11.10
2008,10,11,10,42,11.20
2008,10,11,10,43,11.30
2008,10,11,10,44,11.20
2008,10,11,10,45,11.20
2008,10,11,10,46,11.20
2008,10,11,10,47,11.30
2008,10,11,10,48,11.30
2008,10,11,10,49,11.30
2008,10,11,10,50,11.40
2008,10,11,10,51,11.40
2008,10,11,10,52,11.50
2008,10,11,10,53,11.60
2008,10,11,10,54,11.60
2008,10,11,10,55,11.60
2008,10,11,10,56,11.60
2008,10,11,10,57,11.50
2008,10,11,10,58,11.40
2008,10,11,10,59,11.40
2008,10,11,11,00,11.30
2008,10,11,11,01,11.40
2008,10,11,11,02,11.40
2008,10,11,11,03,11.40
2008,10,11,11,04,11.40
2008,10,11,11,05,11.40
2008,10,11,11,06,11.60
2008,10,11,11,07,11.60
2008,10,11,11,08,11.60
2008,10,11,11,09,11.70
2008,10,11,11,10,11.70
2008,10,11,11,11,11.70
2008,10,11,11,12,11.80
2008,10,11,11,13,11.90
2008,10,11,11,14,11.90
2008,10,11,11,15,12.00
2008,10,11,11,16,12.00
2008,10,11,11,17,12.00
2008,10,11,11,18,12.00
2008,10,11,11,19,12.00
2008,10,11,11,20,12.10
2008,10,11,11,21,12.10
2008,10,11,11,22,12.10
2008,10,11,11,23,12.10
2008,10,11,11,24,12.00
2008,10,11,11,25,12.00
2008,10,11,11,26,11.90
2008,10,11,11,27,11.80
2008,10,11,11,28,11.80
2008,10,11,11,29,11.70
2008,10,11,11,30,11.60
2008,10,11,11,31,11.60
2008,10,11,11,32,11.50
2008,10,11,11,33,11.40
2008,10,11,11,34,11.60
2008,10,11,11,35,11.60
2008,10,11,11,36,11.80
2008,10,11,11,37,11.80
2008,10,11,11,38,11.80
2008,10,11,11,39,11.80
2008,10,11,11,40,11.80
2008,10,11,11,41,11.90
2008,10,11,11,42,11.90
2008,10,11,11,43,11.80
2008,10,11,11,44,11.80
2008,10,11,11,45,11.90
2008,10,11,11,46,12.00
2008,10,11,11,47,12.10
2008,10,11,11,48,12.10
2008,10,11,11,49,12.00
2008,10,11,11,50,11.80
2008,10,11,11,51,11.80
2008,10,11,11,52,11.70
2008,10,11,11,53,11.60
2008,10,11,11,54,11.40
2008,10,11,11,55,11.30
2008,10,11,11,56,11.20
2008,10,11,11,57,11.10
2008,10,11,11,58,11.10
2008,10,11,11,59,11.10
2008,10,11,12,00,11.10
2008,10,11,12,01,11.10
2008,10,11,12,02,11.10
2008,10,11,12,03,11.10
2008,10,11,12,04,11.10
2008,10,11,12,05,10.90
2008,10,11,12,06,10.90
2008,10,11,12,07,10.90
2008,10,11,12,08,10.90
2008,10,11,12,09,10.90
2008,10,11,12,10,10.90
2008,10,11,12,11,10.90
2008,10,11,12,12,10.90
2008,10,11,12,13,10.90
2008,10,11,12,14,10.90
2008,10,11,12,15,10.90
2008,10,11,12,16,11.10
2008,10,11,12,17,11.10
2008,10,11,12,18,11.10
2008,10,11,12,19,11.20
2008,10,11,12,20,11.20
2008,10,11,12,21,11.30
2008,10,11,12,22,11.50
2008,10,11,12,23,11.60
2008,10,11,12,24,11.50
2008,10,11,12,25,11.40
2008,10,11,12,26,11.40
2008,10,11,12,27,11.40
2008,10,11,12,28,11.40
2008,10,11,12,29,11.40
2008,10,11,12,30,11.40
2008,10,11,12,31,11.40
2008,10,11,12,32,11.40
2008,10,11,12,33,11.40
2008,10,11,12,34,11.40
2008,10,11,12,35,11.40
2008,10,11,12,36,11.40
2008,10,11,12,37,11.40
2008,10,11,12,38,11.40
2008,10,11,12,39,11.40
2008,10,11,12,40,11.40
2008,10,11,12,41,11.50
2008,10,11,12,42,11.60
2008,10,11,12,43,11.70
2008,10,11,12,44,11.70
2008,10,11,12,45,11.80
2008,10,11,12,46,11.80
2008,10,11,12,47,11.80
2008,10,11,12,48,11.80
2008,10,11,12,49,11.80
2008,10,11,12,50,11.80
2008,10,11,12,51,11.80
2008,10,11,12,52,11.80
2008,10,11,12,53,11.80
2008,10,11,12,54,11.80
2008,10,11,12,55,11.80
2008,10,11,12,56,11.80
2008,10,11,12,57,11.80
2008,10,11,12,58,11.80
2008,10,11,12,59,11.80
2008,10,11,13,00,11.80
2008,10,11,13,01,11.80
2008,10,11,13,02,11.80
2008,10,11,13,03,11.80
2008,10,11,13,04,11.90
2008,10,11,13,05,12.00
2008,10,11,13,06,12.10
2008,10,11,13,07,12.20
2008,10,11,13,08,12.30
2008,10,11,13,09,12.40
2008,10,11,13,10,12.50
2008,10,11,13,11,12.60
2008,10,11,13,12,12.60
2008,10,11,13,13,12.50
2008,10,11,13,14,12.30
2008,10,11,13,15,12.30
2008,10,11,13,16,12.30
2008,10,11,13,17,12.30
2008,10,11,13,18,12.30
2008,10,11,13,19,12.30
2008,10,11,13,20,12.50
2008,10,11,13,21,12.80
2008,10,11,13,22,13.00
2008,10,11,13,23,13.10
2008,10,11,13,24,13.20
2008,10,11,13,25,13.30
2008,10,11,13,26,13.30
2008,10,11,13,27,13.10
2008,10,11,13,28,13.00
2008,10,11,13,29,13.10
2008,10,11,13,30,13.10
2008,10,11,13,31,13.00
2008,10,11,13,32,12.90
2008,10,11,13,33,12.90
2008,10,11,13,34,13.00
2008,10,11,13,35,13.00
2008,10,11,13,36,13.00
2008,10,11,13,37,12.90
2008,10,11,13,38,12.80
2008,10,11,13,39,12.80
2008,10,11,13,40,12.70
2008,10,11,13,41,12.50
2008,10,11,13,42,12.20
2008,10,11,13,43,12.00
2008,10,11,13,44,12.00
2008,10,11,13,45,12.00
2008,10,11,13,46,12.00
2008,10,11,13,47,11.90
2008,10,11,13,48,11.90
2008,10,11,13,49,12.00
2008,10,11,13,50,12.00
2008,10,11,13,51,11.80
2008,10,11,13,52,11.70
2008,10,11,13,53,11.60
2008,10,11,13,54,11.40
2008,10,11,13,55,11.30
2008,10,11,13,56,11.20
2008,10,11,13,57,11.20
2008,10,11,13,58,11.10
2008,10,11,13,59,11.10
2008,10,11,14,00,11.00
2008,10,11,14,01,10.90
2008,10,11,14,02,10.80
2008,10,11,14,03,10.70
2008,10,11,14,04,10.70
2008,10,11,14,05,10.70
2008,10,11,14,06,10.70
2008,10,11,14,07,10.80
2008,10,11,14,08,10.80
2008,10,11,14,09,10.70
2008,10,11,14,10,10.70
2008,10,11,14,11,10.70
2008,10,11,14,12,10.70
2008,10,11,14,13,10.70
2008,10,11,14,14,10.80
2008,10,11,14,15,10.70
2008,10,11,14,16,10.70
2008,10,11,14,17,10.70
2008,10,11,14,18,10.70
2008,10,11,14,19,10.80
2008,10,11,14,20,10.80
2008,10,11,14,21,10.80
2008,10,11,14,22,10.80
2008,10,11,14,23,10.80
2008,10,11,14,24,10.80
2008,10,11,14,25,10.80
2008,10,11,14,26,10.70
2008,10,11,14,27,10.70
2008,10,11,14,28,10.80
2008,10,11,14,29,10.80
2008,10,11,14,30,10.80
2008,10,11,14,31,10.70
2008,10,11,14,32,10.70
2008,10,11,14,33,10.70
2008,10,11,14,34,10.70
2008,10,11,14,35,10.70
2008,10,11,14,36,10.70
2008,10,11,14,37,10.80
2008,10,11,14,38,10.70
2008,10,11,14,39,10.70
2008,10,11,14,40,10.70
2008,10,11,14,41,10.70
2008,10,11,14,42,10.70
2008,10,11,14,43,10.70
2008,10,11,14,44,10.80
2008,10,11,14,45,10.80
2008,10,11,14,46,10.90
2008,10,11,14,47,10.90
2008,10,11,14,48,10.90
2008,10,11,14,49,10.90
2008,10,11,14,50,10.90
2008,10,11,14,51,10.90
2008,10,11,14,52,10.90
2008,10,11,14,53,10.90
2008,10,11,14,54,10.90
2008,10,11,14,55,10.90
2008,10,11,14,56,10.90
2008,10,11,14,57,10.90
2008,10,11,14,58,11.00
2008,10,11,14,59,11.10
2008,10,11,15,00,11.10
2008,10,11,15,01,11.10
2008,10,11,15,02,11.10
2008,10,11,15,03,11.10
2008,10,11,15,04,11.10
2008,10,11,15,05,11.10
2008,10,11,15,06,11.10
2008,10,11,15,07,11.10
2008,10,11,15,08,11.10
2008,10,11,15,09,11.10
2008,10,11,15,10,11.10
2008,10,11,15,11,11.10
2008,10,11,15,12,11.20
2008,10,11,15,13,11.20
2008,10,11,15,14,11.30
2008,10,11,15,15,11.20
2008,10,11,15,16,11.20
2008,10,11,15,17,11.20
2008,10,11,15,18,11.20
2008,10,11,15,19,11.20
2008,10,11,15,20,11.10
2008,10,11,15,21,11.10
2008,10,11,15,22,11.10
2008,10,11,15,23,11.10
2008,10,11,15,24,11.10
2008,10,11,15,25,11.10
2008,10,11,15,26,11.10
2008,10,11,15,27,11.10
2008,10,11,15,28,11.10
2008,10,11,15,29,11.10
2008,10,11,15,30,11.20
2008,10,11,15,31,11.20
2008,10,11,15,32,11.20
2008,10,11,15,33,11.30
2008,10,11,15,34,11.30
2008,10,11,15,35,11.40
2008,10,11,15,36,11.40
2008,10,11,15,37,11.40
2008,10,11,15,38,11.40
2008,10,11,15,39,11.50
2008,10,11,15,40,11.60
2008,10,11,15,41,11.60
2008,10,11,15,42,11.60
2008,10,11,15,43,11.60
2008,10,11,15,44,11.60
2008,10,11,15,45,11.60
2008,10,11,15,46,11.60
2008,10,11,15,47,11.60
2008,10,11,15,48,11.60
2008,10,11,15,49,11.60
2008,10,11,15,50,11.60
2008,10,11,15,51,11.60
2008,10,11,15,52,11.70
2008,10,11,15,53,11.70
2008,10,11,15,54,11.70
2008,10,11,15,55,11.70
2008,10,11,15,56,11.80
2008,10,11,15,57,11.80
2008,10,11,15,58,11.80
2008,10,11,15,59,11.90
2008,10,11,16,00,11.90
2008,10,11,16,01,11.90
2008,10,11,16,02,12.00
2008,10,11,16,03,12.00
2008,10,11,16,04,12.00
2008,10,11,16,05,12.00
2008,10,11,16,06,12.00
2008,10,11,16,07,12.00
2008,10,11,16,08,11.90
2008,10,11,16,09,11.80
2008,10,11,16,10,11.60
2008,10,11,16,11,11.40
2008,10,11,16,12,11.40
2008,10,11,16,13,11.20
2008,10,11,16,14,11.10
2008,10,11,16,15,11.10
2008,10,11,16,16,11.00
2008,10,11,16,17,10.90
2008,10,11,16,18,10.90
2008,10,11,16,19,10.90
2008,10,11,16,20,10.90
2008,10,11,16,21,10.90
2008,10,11,16,22,10.90
2008,10,11,16,23,10.90
2008,10,11,16,24,10.90
2008,10,11,16,25,10.90
2008,10,11,16,26,10.90
2008,10,11,16,27,10.90
2008,10,11,16,28,10.90
2008,10,11,16,29,10.90
2008,10,11,16,30,10.90
2008,10,11,16,31,10.90
2008,10,11,16,32,10.80
2008,10,11,16,33,10.80
2008,10,11,16,34,10.70
2008,10,11,16,35,10.60
2008,10,11,16,36,10.60
2008,10,11,16,37,10.60
2008,10,11,16,38,10.60
2008,10,11,16,39,10.50
2008,10,11,16,40,10.40
2008,10,11,16,41,10.40
2008,10,11,16,42,10.40
2008,10,11,16,43,10.40
2008,10,11,16,44,10.40
2008,10,11,16,45,10.40
2008,10,11,16,46,10.40
2008,10,11,16,47,10.40
2008,10,11,16,48,10.40
2008,10,11,16,49,10.40
2008,10,11,16,50,10.40
2008,10,11,16,51,10.40
2008,10,11,16,52,10.40
2008,10,11,16,53,10.40
2008,10,11,16,54,10.30
2008,10,11,16,55,10.30
2008,10,11,16,56,10.40
2008,10,11,16,57,10.40
2008,10,11,16,58,10.40
2008,10,11,16,59,10.40
2008,10,11,17,00,10.40
2008,10,11,17,01,10.40
2008,10,11,17,02,10.40
2008,10,11,17,03,10.40
2008,10,11,17,04,10.40
2008,10,11,17,05,10.40
2008,10,11,17,06,10.40
2008,10,11,17,07,10.40
2008,10,11,17,08,10.40
2008,10,11,17,09,10.40
2008,10,11,17,10,10.40
2008,10,11,17,11,10.40
2008,10,11,17,12,10.40
2008,10,11,17,13,10.40
2008,10,11,17,14,10.40
2008,10,11,17,15,10.40
2008,10,11,17,16,10.40
2008,10,11,17,17,10.40
2008,10,11,17,18,10.40
2008,10,11,17,19,10.40
2008,10,11,17,20,10.40
2008,10,11,17,21,10.40
2008,10,11,17,22,10.40
2008,10,11,17,23,10.40
2008,10,11,17,24,10.40
2008,10,11,17,25,10.40
2008,10,11,17,26,10.40
2008,10,11,17,27,10.50
2008,10,11,17,28,10.60
2008,10,11,17,29,10.60
2008,10,11,17,30,10.60
2008,10,11,17,31,10.60
2008,10,11,17,32,10.60
2008,10,11,17,33,10.60
2008,10,11,17,34,10.70
2008,10,11,17,35,10.80
2008,10,11,17,36,10.80
2008,10,11,17,37,10.80
2008,10,11,17,38,10.80
2008,10,11,17,39,10.80
2008,10,11,17,40,10.80
2008,10,11,17,41,10.70
2008,10,11,17,42,10.70
2008,10,11,17,43,10.70
2008,10,11,17,44,10.60
2008,10,11,17,45,10.60